• Processing (Info)

  • MPEC 2010-F42 : 2010 FB6

    The following Minor Planet Electronic Circular may be linked-to from your own Web pages, but must not otherwise be redistributed electronically.

    A form allowing access to any MPEC is at the bottom of this page.


    Read MPEC 2010-F41 Read MPEC 2010-F43


    M.P.E.C. 2010-F42                                Issued 2010 Mar. 19, 22:47 UT
    
         The Minor Planet Electronic Circulars contain information on unusual
             minor planets and routine data on comets.  They are published
       on behalf of Commission 20 of the International Astronomical Union by the
              Minor Planet Center, Smithsonian Astrophysical Observatory,
                              Cambridge, MA 02138, U.S.A.
    
                 Prepared using the Tamkin Foundation Computer Network
    
                                  MPC@CFA.HARVARD.EDU
           URL https://www.minorplanetcenter.org/iau/mpc.html  ISSN 1523-6714
    
                                       2010 FB6
    
    Observations:
         K10F06B* C2010 03 18.37442 12 22 01.99 +04 15 59.5          21.5 V EF042G96
         K10F06B  C2010 03 18.38044 12 22 00.51 +04 15 49.6          20.2 V EF042G96
         K10F06B  C2010 03 18.38645 12 21 59.07 +04 15 39.3          21.2 V EF042G96
         K10F06B  C2010 03 18.39247 12 21 57.67 +04 15 28.6          21.4 V EF042G96
         K10F06B KC2010 03 18.42501 12 21 49.81 +04 14 33.3          20.9 R EF042926
         K10F06B KC2010 03 18.43461 12 21 47.60 +04 14 17.3          20.7 R EF042926
         K10F06B  C2010 03 18.45095 12 21 43.74 +04 13 48.5          21.7 V EF042G96
         K10F06B  C2010 03 18.45291 12 21 43.23 +04 13 45.5          21.4 V EF042G96
         K10F06B  C2010 03 18.45485 12 21 42.84 +04 13 42.3          21.5 V EF042G96
         K10F06B  C2010 03 18.45675 12 21 42.33 +04 13 38.5          21.3 V EF042G96
         K10F06B  C2010 03 19.32110 12 18 23.09 +03 49 04.8          20.1 R EF042H01
         K10F06B  C2010 03 19.32905 12 18 21.27 +03 48 51.9          21.0 V EF042G96
         K10F06B  C2010 03 19.32908 12 18 21.19 +03 48 51.4          20.8 R EF042H01
         K10F06B  C2010 03 19.33390 12 18 20.08 +03 48 43.0          20.6 V EF042G96
         K10F06B  C2010 03 19.33698 12 18 19.30 +03 48 38.0          20.7 R EF042H01
         K10F06B  C2010 03 19.33875 12 18 18.97 +03 48 35.6          21.0 V EF042G96
         K10F06B  C2010 03 19.34369 12 18 17.82 +03 48 27.2          21.1 V EF042G96
         K10F06B  C2010 03 19.34727 12 18 16.83 +03 48 20.4          20.9 R EF042H01
         K10F06B  C2010 03 19.35871 12 18 14.10 +03 48 00.6          21.0 R EF042H01
    
    Observer details:
    926 Tenagra II Observatory.  Observers P. R. Holvorcem, M. Schwartz.  Measurer
        P. R. Holvorcem.  0.81-m f/7 Ritchey-Chretien + CCD.
    G96 Mt. Lemmon Survey.  Observer R. E. Hill.  Measurers J. D. Ahern,
        E. C. Beshore, A. Boattini, G. J. Garradd, A. R. Gibbs, A. D. Grauer,
        R. E. Hill, R. A. Kowalski, S. M. Larson, R. H. McNaught.  1.5-m reflector
        + CCD.
    H01 Magdalena Ridge Observatory, Socorro.  Observers W. H. Ryan, E. V. Ryan.
        Measurer W. H. Ryan.  2.4-m f/8.9 reflector + CCD.
    
    Orbital elements:
    2010 FB6                                                 Earth MOID = 0.1090 AU
    Epoch 2010 Jan. 4.0 TT = JDT 2455200.5                  MPC
    M  54.10371              (2000.0)            P               Q
    n   0.66366635     Peri.   52.43019     +0.57107292     -0.82059285
    a   1.3016759      Node     3.02145     +0.55248828     +0.36399569
    e   0.1984098      Incl.   25.18447     +0.60715106     +0.44060699
    P   1.49           H   21.9           G   0.15           U   9
    Residuals in seconds of arc
    100318 G96  0.4+  0.1-    100318 G96  0.3-  0.0     100319 H01  0.0   0.2+
    100318 G96  0.2-  0.3+    100318 G96  0.8+  0.2+    100319 G96  0.3+  0.3+
    100318 G96  0.3-  0.3+    100318 G96  0.1-  0.4-    100319 G96  0.7+  0.3+
    100318 G96  0.3+  0.1-    100319 H01  0.0   0.1-    100319 H01  0.3-  0.1+
    100318 926  1.0-  0.2-    100319 G96  0.0   0.0     100319 H01  0.3-  0.2-
    100318 926  0.1+  0.2+    100319 H01  0.1+  0.1+
    100318 G96  0.4+  0.3-    100319 G96  0.5-  0.6-
    
    Ephemeris:
    2010 FB6                 a,e,i = 1.30, 0.20, 25                  q = 1.0434
    Date    TT    R. A. (2000) Decl.     Delta      r     Elong.  Phase     V
    2010 03 15    12 35.07   +05 51.5    0.410    1.395   165.5    10.3    21.3
    2010 03 25    11 57.03   +01 09.6    0.424    1.420   174.7     3.7    21.1
    2010 04 04    11 24.57   -03 06.8    0.467    1.444   158.2    14.9    21.9
    2010 04 14    11 01.64   -06 34.6    0.531    1.465   143.6    23.9    22.5
    
    Sonia Keys                   (C) Copyright 2010 MPC           M.P.E.C. 2010-F42
    

    Read MPEC 2010-F41 Read MPEC 2010-F43


    MPEC number:

    Enter an MPEC number in one of the following forms:

    • 1997-B01 (the full form)
    • J97B01 (the packed version of the full form)
    • B01 (the abbreviated form)